Starlink 31129

operational
NORAD ID: 58624 Int'l Des: 2023-203 Owner: SPXS Country: US Constellation: starlink
LEOCIRCULAR

关于 Starlink 31129

正在加载描述...

实时位置

正在加载3D地球...

即将过境

高度历史

Altitude vs Time

uPlot chart will show altitude changes over time

两行轨道根数

1 58624U 23203G 25303.78223720 .00002830 00000-0 11235-3 0 9997
2 58624 43.0021 80.7469 0001821 279.6065 80.4581 15.27572493103698
Epoch: Oct 30, 2025 • Age: 26 hours

当前状态

高度 487.4 km
速度 7.63 km/s
星下点 43.11°N, 176.52°W
发射日期 Dec 23, 2023
运行时间 1.8 years
类型 internet

技术详情

分类 Payload
质量 730.00 kg
干质量 700.00 kg
总质量 730.00 kg
长度 0.30 m
直径 4.10 m
跨度 29.00 m
形状 Box + pan
制造商 SPXS
平台类型 Starlink V2M
阶段状态 In Orbit
所有者/国家 SPXS/US

大型星座

Loading constellations...